RH
53 56 58 57 59 60 62 62 61 62 63 67 71 72 73 74 75 75 74 72 71 71 69 64 60 57 54 51 49 48 48 47 47 48 48 49 49 49 49 49 49 49 49 50 50 51 51 51 51 50 50 49 48 48 47 46 45 44 44 44 44 45 45 45 45 45 45 46 46 46 45 44 44 43 42 42 41 40 39 39 39 39 38 37 36
49 53 57 58 58 58 60 62 61 59 59 64 71 74 75 76 75 74 73 71 70 70 69 65 60 57 55 53 51 50 50 49 49 49 49 50 51 52 52 52 52 52 51 51 52 52 52 52 52 51 51 51 51 50 50 50 50 50 50 50 50 50 49 49 49 48 47 46 46 45 44 43 43 42 41 41 41 40 39 38 38 38 38 38 36
44 47 52 57 59 58 58 58 58 55 55 60 66 70 74 75 74 72 70 69 68 67 66 64 60 59 57 54 52 51 52 52 52 53 53 53 54 55 56 56 56 57 57 58 58 58 58 58 58 57 57 57 56 56 56 55 54 54 53 52 51 50 49 48 47 46 45 44 43 43 42 41 41 41 40 39 38 37 37 36 37 36 36 36 35
44 44 47 51 56 58 58 57 56 54 53 55 59 65 70 72 71 70 69 67 66 65 66 64 61 60 59 57 55 54 55 56 57 57 57 58 58 58 59 59 59 60 60 60 61 61 61 61 60 60 59 59 58 57 56 54 53 52 51 50 48 47 46 45 44 43 42 41 40 39 38 37 37 37 37 37 36 34 33 33 34 34 33 33 33
45 45 45 47 51 55 57 56 55 55 55 55 57 61 66 67 67 68 67 66 64 64 65 65 63 61 61 60 58 57 58 59 60 59 59 60 60 60 61 61 61 61 60 60 60 59 59 58 58 58 56 56 55 54 53 52 50 49 48 46 45 44 42 41 40 38 37 36 35 35 34 34 33 32 33 34 34 34 34 33 32 32 32 31 31
43 45 45 45 46 50 54 54 52 53 55 56 59 61 63 64 65 66 67 66 65 64 65 66 64 63 63 62 59 59 61 61 60 60 59 60 60 61 61 61 61 61 60 59 58 57 56 55 55 54 53 53 52 51 49 48 46 45 43 42 41 40 38 37 36 34 33 32 31 31 30 30 30 29 29 29 29 31 33 33 32 31 31 31 31
41 43 45 46 45 47 51 53 52 52 53 56 60 62 62 63 64 65 66 66 66 66 66 67 66 64 64 64 62 62 62 61 60 59 59 60 60 61 61 62 61 61 60 58 56 55 54 52 52 51 50 49 47 46 44 42 41 40 39 38 37 36 34 33 32 31 29 29 28 27 27 27 27 27 27 27 27 28 29 32 34 34 33 33 32
38 40 42 45 46 47 49 52 54 55 55 57 60 61 60 62 64 65 66 66 68 68 67 68 68 67 66 66 65 64 63 61 60 59 59 59 60 61 61 62 62 61 60 58 56 54 52 51 50 48 47 45 44 43 42 40 40 39 38 37 35 34 32 31 30 29 27 27 26 26 26 26 26 27 27 28 29 30 30 31 32 34 34 33 32
36 38 39 42 45 47 48 51 54 56 57 59 62 62 62 65 68 68 68 68 69 69 69 69 68 68 68 68 68 66 64 62 61 60 60 61 61 62 62 62 62 62 61 59 55 53 51 50 49 48 47 46 45 44 43 42 41 39 38 36 34 33 31 30 28 27 27 27 27 27 27 26 26 27 28 29 29 29 29 30 30 31 31 31 31
37 39 40 43 46 48 48 50 54 57 58 61 65 66 66 69 71 70 71 73 73 72 71 70 68 68 69 69 69 68 65 63 63 62 62 62 63 63 63 63 63 62 62 59 55 52 50 48 48 48 48 48 48 47 45 43 42 39 37 35 33 32 31 30 29 29 28 28 28 27 26 25 24 24 26 27 27 27 28 28 29 30 29 30 33
39 40 42 45 48 51 51 50 53 58 60 62 66 67 69 71 72 73 75 77 76 74 73 72 70 70 70 70 70 70 68 66 66 65 65 65 64 64 64 64 63 63 63 59 55 51 49 48 48 49 50 50 50 48 45 43 41 39 37 35 34 33 32 31 31 30 29 28 26 25 25 24 24 24 25 27 28 29 28 28 28 29 30 30 33
42 42 44 46 49 53 55 54 54 58 62 65 68 70 71 73 75 76 78 78 77 75 75 74 74 74 73 73 74 73 71 70 69 70 69 67 67 66 65 65 64 63 63 61 57 53 51 50 50 51 52 53 51 49 46 44 41 39 37 37 36 35 34 33 31 30 28 27 25 24 24 24 24 24 25 27 29 30 30 30 30 31 33 34 35
44 45 46 48 50 54 58 59 57 58 62 67 71 73 73 75 78 79 79 79 78 78 79 78 79 79 78 77 76 75 74 74 74 74 73 72 71 69 67 66 65 65 64 63 61 57 54 53 54 56 57 56 53 50 48 45 42 41 40 39 38 36 34 32 30 29 27 26 25 24 23 24 25 26 27 28 30 32 32 33 34 35 37 39 40
46 45 47 49 51 54 58 62 62 62 64 69 74 76 76 76 79 80 81 82 81 82 82 81 81 82 81 79 78 77 77 78 77 78 78 78 75 72 70 69 68 67 66 66 65 63 60 58 58 60 60 58 55 52 49 46 44 44 42 41 39 36 34 32 30 28 27 25 25 24 24 25 25 27 29 30 32 33 33 34 36 38 41 44 47
46 45 47 50 52 54 58 63 66 67 68 71 76 79 78 78 80 82 83 84 84 84 85 85 85 84 82 81 81 81 81 81 81 80 81 81 79 75 73 72 70 70 69 68 69 67 65 62 62 62 62 61 58 54 51 49 46 45 43 41 39 36 34 32 30 28 28 26 26 26 27 28 29 30 32 34 35 35 35 36 38 41 43 47 53
46 46 47 49 52 56 59 63 67 70 71 73 78 81 80 80 82 84 85 85 86 87 88 90 90 88 86 84 84 83 83 84 84 83 82 83 82 79 77 75 73 73 72 71 71 71 69 67 65 64 64 63 60 56 52 50 47 45 44 42 39 37 35 33 31 30 30 29 29 29 30 31 32 33 35 35 35 36 37 38 41 43 45 49 57
46 47 49 50 53 59 63 66 69 72 74 76 80 82 82 82 83 85 86 86 88 89 91 93 93 92 90 88 87 87 87 87 86 85 84 84 84 83 80 77 76 76 75 74 75 74 73 70 67 66 67 65 62 57 53 49 47 46 45 43 41 38 36 35 34 33 32 32 31 31 31 33 35 37 39 38 37 38 38 41 45 48 51 54 59
47 48 50 53 56 61 66 70 72 74 75 78 81 83 83 83 84 85 86 87 89 90 93 95 95 95 94 93 92 91 90 89 88 88 87 88 86 85 81 79 79 79 78 78 78 77 76 74 71 69 68 67 63 57 53 50 48 47 47 46 44 41 39 37 36 36 35 34 33 32 32 33 37 40 42 42 41 41 41 44 49 52 57 60 61
48 49 52 56 61 64 67 71 74 75 77 79 82 84 85 85 85 86 87 88 90 92 95 97 97 96 96 96 95 93 92 91 90 90 91 91 90 87 84 82 83 84 84 82 80 80 80 78 74 72 71 69 64 59 55 52 50 49 49 48 47 45 42 41 40 39 37 36 35 35 34 35 37 41 45 45 44 44 45 49 53 56 60 66 66
50 51 54 58 63 67 68 70 73 76 78 80 83 85 86 86 86 86 88 89 91 94 97 98 98 98 98 97 96 95 94 93 92 92 93 94 94 91 88 86 87 89 89 87 84 83 83 81 78 75 74 71 66 61 58 55 52 51 51 50 49 48 46 44 43 41 39 39 39 40 40 40 41 44 47 48 47 47 50 54 58 60 63 68 71
52 53 56 60 64 67 70 71 73 76 78 80 84 86 86 86 87 87 88 89 91 95 98 99 98 98 99 98 97 95 95 94 94 94 94 95 96 95 92 92 93 93 92 91 88 86 85 84 82 79 78 74 69 64 61 58 55 54 54 53 52 50 49 47 45 42 41 40 42 44 45 46 46 48 50 50 49 50 54 58 61 64 66 69 71
55 56 58 60 63 66 70 73 75 76 78 80 84 87 86 86 87 87 87 89 91 94 98 99 99 99 99 98 98 97 96 95 95 95 95 96 97 97 96 97 97 96 95 94 93 91 88 86 85 83 82 78 72 68 65 62 59 58 57 56 54 52 50 48 47 45 43 43 45 47 49 50 50 51 53 53 51 53 58 62 64 66 69 71 69
58 59 61 62 63 64 68 72 74 76 77 80 84 87 87 87 87 87 88 89 91 94 98 100 100 99 99 99 98 97 97 96 96 95 96 97 98 98 99 99 99 99 98 97 96 95 93 91 89 88 86 82 77 73 70 67 64 62 60 59 56 54 52 50 48 47 45 46 47 50 53 54 51 52 55 56 54 57 62 65 67 68 71 72 68
61 62 64 65 65 65 67 71 74 75 77 79 83 86 87 87 87 87 88 89 91 95 98 100 100 99 99 99 99 98 98 97 97 97 97 97 99 99 100 100 100 100 101 99 98 97 97 96 95 94 91 87 84 80 76 74 71 67 64 62 58 55 53 52 50 49 48 48 50 53 57 56 51 51 56 57 56 61 65 67 69 70 72 72 68
65 65 66 67 68 68 69 71 74 76 78 80 84 88 89 88 88 88 88 88 91 95 98 100 100 99 99 99 99 99 99 98 98 98 97 98 100 100 99 100 101 101 102 101 98 97 98 98 99 98 95 92 89 85 82 80 77 73 71 67 61 57 55 53 51 50 50 51 53 56 59 58 52 51 55 57 58 62 66 69 70 71 72 71 66
67 68 69 70 71 71 73 75 77 79 80 82 84 87 88 89 88 87 87 89 91 96 100 101 100 99 100 100 100 99 99 98 98 98 98 99 100 100 98 98 99 101 102 101 98 96 98 99 100 100 99 97 93 89 86 84 82 79 77 73 66 59 56 54 53 51 51 53 55 58 61 58 52 52 56 58 59 62 65 69 72 72 72 71 66
69 70 71 72 73 75 77 79 80 81 82 83 85 87 88 88 88 87 88 90 93 97 100 100 100 100 100 100 100 100 99 98 99 99 99 100 100 100 99 100 99 100 100 100 98 97 99 100 101 101 101 100 96 93 89 87 86 83 80 77 71 62 57 55 54 53 53 54 56 60 62 57 52 53 57 59 60 62 65 68 72 74 73 70 65
70 71 72 73 75 78 80 82 83 83 83 84 86 88 89 89 88 89 90 92 95 98 99 99 99 100 100 100 100 100 99 99 99 100 100 100 100 100 101 101 101 99 98 97 97 98 100 101 101 101 101 100 98 97 94 91 89 87 83 80 75 66 59 56 55 54 54 54 57 61 62 56 52 54 58 61 63 63 65 68 72 73 71 67 61
71 72 74 76 79 82 84 86 86 86 86 86 87 89 91 91 92 94 95 96 97 98 98 97 97 98 100 101 101 101 100 100 100 100 100 100 101 100 101 102 102 101 100 98 98 99 100 101 101 101 101 100 99 99 96 94 92 89 84 81 76 70 63 58 56 55 53 54 58 62 59 54 52 55 60 64 65 64 66 69 71 71 69 62 52
76 77 78 81 84 86 89 90 91 90 90 89 89 91 93 95 97 99 99 100 99 99 98 97 97 98 100 101 102 102 101 101 101 101 101 101 101 101 101 101 102 102 101 100 100 100 100 100 101 101 101 101 100 99 97 95 92 90 86 81 76 72 67 61 57 55 54 56 61 62 57 53 53 57 62 66 66 66 66 69 71 69 63 53 43
81 82 84 86 88 89 91 93 93 92 91 91 91 92 94 96 99 100 100 100 100 100 101 100 100 100 101 101 102 102 101 101 101 101 101 101 101 101 101 100 100 100 100 100 100 100 100 100 101 101 101 101 101 99 97 95 93 90 86 81 75 71 68 64 60 57 56 60 64 62 56 52 54 60 64 66 67 67 68 70 69 63 53 44 37
83 85 88 89 90 91 91 92 91 91 90 90 90 91 93 95 98 99 99 99 99 99 100 100 100 100 100 100 100 100 101 101 100 100 101 101 101 100 100 100 100 100 100 100 100 100 100 101 101 101 101 101 100 98 97 94 91 88 85 79 74 70 68 66 63 60 60 63 66 62 55 53 56 62 65 66 67 68 70 70 66 55 46 40 32
83 85 87 88 88 88 88 88 88 87 86 85 85 86 87 89 92 93 94 94 95 95 95 96 97 97 98 99 99 99 100 101 101 101 101 101 101 101 101 101 101 101 100 100 100 100 100 100 101 101 101 100 99 97 94 91 89 86 82 78 73 69 66 65 63 61 63 65 65 60 55 54 59 64 67 66 67 69 71 69 59 48 41 35 26
82 84 85 85 85 85 84 84 83 82 81 80 80 81 82 83 85 86 86 86 87 88 88 88 88 89 90 91 90 91 92 94 96 98 99 99 99 99 100 100 100 100 100 100 100 100 100 100 100 100 100 99 97 94 91 89 87 83 79 75 71 68 66 64 62 62 65 66 63 58 55 56 61 67 68 67 68 71 70 61 50 43 37 28 22
82 82 82 81 79 78 76 75 73 72 72 73 73 74 74 74 75 74 73 73 74 76 76 75 74 73 74 74 74 75 76 78 81 83 86 89 90 91 92 93 94 94 95 96 97 98 100 101 101 100 99 98 95 91 89 87 85 81 78 74 71 69 66 63 63 65 68 66 61 56 55 59 64 69 69 68 70 71 64 52 44 39 32 25 25
77 75 72 69 67 64 63 61 61 60 60 60 60 61 61 61 60 59 58 58 59 60 62 64 64 65 65 65 65 65 66 66 68 69 72 76 78 81 84 85 86 87 89 90 91 93 95 98 99 100 98 95 92 89 87 85 83 79 76 73 72 70 67 64 65 68 68 64 59 57 57 63 68 69 69 70 72 67 56 46 40 34 27 27 34
67 64 62 59 57 56 55 54 53 52 51 50 50 49 49 49 48 48 48 49 51 53 55 58 59 60 60 60 60 60 60 61 62 64 67 70 74 78 81 82 83 84 85 85 87 88 91 95 98 97 95 93 90 88 85 84 81 78 75 74 73 70 67 66 68 69 66 62 58 58 62 68 71 70 71 73 70 59 48 42 35 29 27 35 42
62 59 57 55 54 52 50 49 47 46 45 44 43 42 41 42 42 43 44 45 46 49 51 53 55 57 57 58 58 59 59 60 62 63 65 67 71 77 81 82 83 83 83 83 84 85 89 94 96 94 92 90 88 86 85 83 81 78 76 75 73 70 68 69 70 68 64 61 59 61 67 71 71 71 73 73 62 51 44 38 30 28 34 42 47
58 56 54 51 48 46 44 42 41 41 40 39 39 38 38 39 39 39 40 41 42 44 47 50 52 54 56 58 59 60 60 61 62 62 64 65 67 71 77 81 82 83 83 82 83 83 85 88 91 92 91 89 87 86 85 83 81 79 77 75 72 70 70 70 68 66 63 61 61 67 72 72 71 73 75 67 54 46 40 32 29 34 42 47 52
53 51 48 44 41 38 37 36 35 35 35 35 35 36 36 36 36 36 37 38 40 43 45 48 50 52 54 57 59 60 61 61 61 62 63 63 64 66 69 73 76 79 80 80 80 80 80 81 84 87 89 89 89 87 85 83 81 79 77 74 73 72 70 68 67 65 62 62 65 72 75 73 74 76 70 57 48 42 34 29 33 43 47 50 60
47 43 40 37 35 33 32 31 31 31 31 30 30 30 31 32 34 36 38 40 42 44 46 48 50 51 53 54 57 59 59 59 59 60 60 61 61 62 63 64 68 72 75 76 76 76 76 77 79 82 85 88 88 87 84 82 79 77 75 74 74 71 69 67 66 64 63 66 72 76 75 75 77 73 61 48 42 36 30 32 42 48 48 54 69
40 37 35 34 34 32 31 31 30 28 27 26 25 26 27 30 33 37 40 43 45 47 48 50 51 52 52 53 55 57 58 57 57 58 59 60 60 61 61 62 64 66 70 74 75 75 76 76 78 80 83 85 85 83 81 79 76 74 74 72 70 68 67 66 65 65 68 74 78 77 76 78 77 65 51 44 38 31 30 39 48 49 52 63 77
38 37 36 35 34 33 32 30 28 26 25 24 24 25 28 30 35 39 43 46 48 49 51 52 53 53 53 52 53 56 58 58 58 59 60 61 62 62 62 64 64 66 68 71 73 75 76 76 77 78 78 78 78 77 76 74 72 72 71 69 68 68 67 66 67 72 78 82 80 78 79 79 69 54 45 40 33 29 36 48 51 50 59 73 81
38 38 38 36 35 33 30 28 27 26 25 26 27 29 31 33 37 41 45 48 50 52 53 54 54 54 53 52 54 57 60 60 61 62 64 64 64 64 64 65 66 67 68 68 69 71 71 72 72 72 72 72 72 72 71 71 71 70 69 68 67 66 66 67 73 81 85 83 79 81 82 73 57 45 41 35 30 34 45 52 51 56 69 79 81
38 37 36 35 33 31 29 28 28 29 30 32 33 34 35 37 39 43 46 49 52 54 56 56 56 56 54 54 57 61 63 63 64 65 67 67 66 66 66 67 68 69 69 68 68 68 68 69 69 70 70 71 72 72 72 72 71 70 69 68 66 66 69 75 82 86 85 82 82 83 76 60 46 41 36 31 33 44 51 52 55 66 78 82 83
34 33 32 30 30 30 31 32 34 35 37 38 38 38 38 39 42 45 48 52 55 58 59 59 58 57 56 57 61 65 66 66 67 69 69 69 69 69 71 71 72 72 72 71 71 71 72 72 73 74 74 75 75 74 73 72 71 70 69 67 68 72 78 84 88 87 84 84 84 78 63 47 40 37 32 32 42 51 52 53 64 76 80 82 84
32 30 29 29 31 33 37 40 41 42 42 42 42 42 42 42 44 47 52 56 60 62 62 61 60 59 58 61 65 68 68 68 70 71 72 72 73 73 74 75 76 76 76 76 76 76 77 77 78 78 78 77 75 74 73 72 71 70 69 70 75 81 86 88 88 87 86 85 80 65 49 40 37 33 32 40 50 53 52 61 74 80 80 82 86
31 30 31 33 36 41 44 46 46 46 46 46 46 46 45 45 47 51 55 60 65 67 65 62 61 60 61 65 69 70 71 72 74 75 75 76 77 77 77 78 79 79 79 80 80 80 80 80 80 79 78 77 76 75 74 73 72 71 73 78 84 87 88 88 88 88 87 81 68 51 40 37 34 33 39 50 54 53 58 72 81 82 82 84 86
32 34 37 41 45 48 49 49 49 50 50 50 50 49 48 48 50 52 58 64 68 68 66 64 62 62 64 68 71 71 73 75 78 79 79 79 80 80 80 81 82 82 83 82 82 82 82 81 80 79 79 79 78 77 75 74 74 77 81 86 89 89 88 88 89 88 82 69 53 41 37 35 34 39 49 55 54 57 69 81 85 84 85 85 85
36 40 45 49 52 53 52 52 53 53 53 54 54 53 52 52 51 52 59 66 67 65 64 64 64 64 67 71 72 73 76 79 81 81 81 82 83 84 83 84 84 85 85 84 83 82 82 81 80 81 81 80 78 77 76 76 78 83 87 90 90 89 88 89 89 83 69 54 42 37 35 35 39 48 55 55 56 65 79 85 86 86 87 87 87
43 48 52 55 56 56 56 56 57 57 57 58 58 57 56 54 52 53 59 65 65 62 61 62 64 68 71 73 75 77 80 83 83 84 85 86 86 85 86 86 85 85 85 84 83 82 81 81 83 83 82 80 78 78 78 80 83 88 91 91 90 88 89 88 83 69 54 43 37 35 35 40 49 55 56 55 63 76 85 86 86 87 88 88 89